Погода в Бридлингтоне

Великобритания     54°05′08″N   0°11′38″E
темп.,
°C
ветер,
м/с
пор.,
м/с
влажн.,
%
обл.,
%
осадки,
мм/ч
давл.,
гПа
погр.,
м
20 июня, вс
вс2001:00+12всв4685100 0.0 1012375
04:00+11всв4688100 0.9 1011458
07:00+11ссв5791100 3.6 1011406
10:00+10ссв6788100 1.1 1012532
13:00+11св6684100 1.4 1012673
16:00+11св557948 0.1 1012677
19:00+12св447515 0.1 1012689
22:00+10св348011 0.0 1013300
21 июня, пн
пн2101:00+10ссв4578100 0.0 1013325
04:00+10ссв4675100 0.0 1013383
07:00+12св5776100 0.0 1015778
10:00+13св577590 0.0 1016837
13:00+14св677391 0.0 1017901
16:00+14ссв6779100 0.1 1018848
19:00+12ссв81080100 0.4 1019751
22:00+12ссв7973100 0.0 1020660
22 июня, вт
вт2201:00+12ссв797197 0.0 1021744
04:00+11с7107795 0.0 1021698
07:00+12с797454 0.0 10221139
10:00+13с78661 0.0 10221193
13:00+13ссв67661 0.0 10231014
16:00+13ссв56672 0.0 1023683
19:00+13всв23700 0.0 1023293
22:00+10ююв22812 0.0 102358
23 июня, ср
ср2301:00+9зюз338459 0.0 102366
04:00+9зюз34854 0.0 102391
07:00+11зсз117867 0.0 1022108
10:00+13вюв217399 0.0 1023414
13:00+15вюв437269 0.0 1022668
16:00+14вюв5575100 0.0 1022265
19:00+14ююв457788 0.0 1022187
22:00+12ююв4584100 0.0 102273
24 июня, чт
чт2401:00+12ююз2290100 0.0 102241
04:00+12зюз3391100 0.0 102158
07:00+13зюз3586100 0.0 1021156
10:00+16зюз3474100 0.0 1020322
13:00+17зюз2377100 0.0 1020418
16:00+17зюз3480100 0.0 1020377
19:00+15з3492100 0.3 1020124
22:00+14з3395100 0.7 102070